Time,TemperatureF,DewpointF,PressureIn,WindDirection,WindDirectionDegrees,WindSpeedMPH,WindSpeedGustMPH,Humidity,HourlyPrecipIn,Conditions,Clouds,dailyrainin,SolarRadiationWatts/m^2,SoftwareType,DateUTC
2013-01-03 00:03:00,41.0,36.0,-100.00,North,8,6.0,11.0,83,0.00,,,0.33,0.000000,,2013-01-03 05:03:00,
2013-01-03 00:33:00,41.0,36.0,-100.00,NNW,348,6.0,9.0,83,0.00,,,0.33,0.000000,,2013-01-03 05:33:00,
2013-01-03 00:42:00,41.0,36.0,-100.00,NNW,348,6.0,9.0,83,0.00,,,0.33,0.000000,,2013-01-03 05:42:00,
2013-01-03 00:53:00,41.0,36.0,-100.00,NNW,348,6.0,9.0,83,0.00,,,0.33,0.000000,,2013-01-03 05:53:00,
2013-01-03 01:03:00,41.0,36.0,-100.00,NNW,348,6.0,9.0,83,0.00,,,0.33,0.000000,,2013-01-03 06:03:00,
2013-01-03 01:33:00,40.0,35.0,-100.00,North,10,7.0,10.0,82,0.00,,,0.33,0.000000,,2013-01-03 06:33:00,
2013-01-03 01:43:00,40.0,35.0,-100.00,North,10,7.0,10.0,82,0.00,,,0.33,0.000000,,2013-01-03 06:43:00,
2013-01-03 01:53:00,40.0,35.0,-100.00,North,10,7.0,10.0,82,0.00,,,0.33,0.000000,,2013-01-03 06:53:00,
2013-01-03 02:02:00,40.0,35.0,-100.00,North,10,7.0,10.0,82,0.00,,,0.33,0.000000,,2013-01-03 07:02:00,
2013-01-03 02:33:00,40.0,35.0,-100.00,NNE,13,6.0,10.0,81,0.00,,,0.33,0.000000,,2013-01-03 07:33:00,
2013-01-03 02:43:00,40.0,35.0,-100.00,NNE,13,6.0,10.0,81,0.00,,,0.33,0.000000,,2013-01-03 07:43:00,
2013-01-03 02:53:00,40.0,35.0,-100.00,NNE,13,6.0,10.0,81,0.00,,,0.33,0.000000,,2013-01-03 07:53:00,
2013-01-03 03:02:00,40.0,35.0,-100.00,NNE,13,6.0,10.0,81,0.00,,,0.33,0.000000,,2013-01-03 08:02:00,
2013-01-03 03:33:00,40.0,34.0,-100.00,NNE,31,7.0,10.0,80,0.00,,,0.32,0.000000,,2013-01-03 08:33:00,
2013-01-03 03:43:00,40.0,34.0,-100.00,NNE,31,7.0,10.0,80,0.00,,,0.32,0.000000,,2013-01-03 08:43:00,
2013-01-03 03:53:00,40.0,34.0,-100.00,NNE,31,7.0,10.0,80,0.00,,,0.32,0.000000,,2013-01-03 08:53:00,
2013-01-03 04:03:00,40.0,34.0,-100.00,NNE,31,7.0,10.0,80,0.00,,,0.32,0.000000,,2013-01-03 09:03:00,
2013-01-03 04:34:00,40.0,35.0,-100.00,NNE,15,6.0,10.0,81,0.00,,,0.29,0.000000,,2013-01-03 09:34:00,
2013-01-03 04:43:00,40.0,35.0,-100.00,NNE,15,6.0,10.0,81,0.00,,,0.29,0.000000,,2013-01-03 09:43:00,
2013-01-03 04:53:00,40.0,35.0,-100.00,NNE,15,6.0,10.0,81,0.00,,,0.29,0.000000,,2013-01-03 09:53:00,
2013-01-03 05:02:00,40.0,35.0,-100.00,NNE,15,6.0,10.0,81,0.00,,,0.29,0.000000,,2013-01-03 10:02:00,
2013-01-03 05:33:00,40.0,35.0,-100.00,NE,42,7.0,10.0,81,0.00,,,0.18,0.000000,,2013-01-03 10:33:00,
2013-01-03 05:43:00,40.0,35.0,-100.00,NE,42,7.0,10.0,81,0.00,,,0.18,0.000000,,2013-01-03 10:43:00,
2013-01-03 05:53:00,40.0,35.0,-100.00,NE,42,7.0,10.0,81,0.00,,,0.18,0.000000,,2013-01-03 10:53:00,
2013-01-03 06:02:00,40.0,35.0,-100.00,NE,42,7.0,10.0,81,0.00,,,0.18,0.000000,,2013-01-03 11:02:00,
2013-01-03 06:33:00,41.0,34.0,-100.00,NE,45,6.0,14.0,77,0.00,,,0.09,0.000000,,2013-01-03 11:33:00,
2013-01-03 06:43:00,41.0,34.0,-100.00,NE,45,6.0,14.0,77,0.00,,,0.09,0.000000,,2013-01-03 11:43:00,
2013-01-03 06:53:00,41.0,34.0,-100.00,NE,45,6.0,14.0,77,0.00,,,0.09,0.000000,,2013-01-03 11:53:00,
2013-01-03 07:03:00,41.0,34.0,-100.00,NE,45,6.0,14.0,77,0.00,,,0.09,0.000000,,2013-01-03 12:03:00,
2013-01-03 11:34:00,41.0,38.0,-100.00,NNE,29,6.0,-999.0,88,-99.99,,,0.04,,,2013-01-03 16:34:00,
2013-01-03 11:43:00,41.0,38.0,-100.00,NNE,29,6.0,-999.0,88,-99.99,,,0.04,,,2013-01-03 16:43:00,
2013-01-03 11:53:00,41.0,38.0,-100.00,NNE,29,6.0,-999.0,88,-99.99,,,0.04,,,2013-01-03 16:53:00,
2013-01-03 12:03:00,41.0,38.0,-100.00,NNE,29,6.0,-999.0,88,-99.99,,,0.04,,,2013-01-03 17:03:00,
2013-01-03 12:33:00,41.0,37.0,-100.00,NNE,23,8.0,13.0,84,0.01,,,0.05,156.000000,,2013-01-03 17:33:00,
2013-01-03 12:43:00,41.0,37.0,-100.00,NNE,23,8.0,13.0,84,0.01,,,0.05,156.000000,,2013-01-03 17:43:00,
2013-01-03 12:53:00,41.0,37.0,-100.00,NNE,23,8.0,13.0,84,0.01,,,0.05,156.000000,,2013-01-03 17:53:00,
2013-01-03 13:03:00,41.0,37.0,-100.00,NNE,23,8.0,13.0,84,0.01,,,0.05,156.000000,,2013-01-03 18:03:00,
2013-01-03 13:33:00,41.0,36.0,-100.00,North,11,6.0,12.0,83,0.00,,,0.05,122.000000,,2013-01-03 18:33:00,
2013-01-03 13:43:00,41.0,36.0,-100.00,North,11,6.0,12.0,83,0.00,,,0.05,122.000000,,2013-01-03 18:43:00,
2013-01-03 13:53:00,41.0,36.0,-100.00,North,11,6.0,12.0,83,0.00,,,0.05,122.000000,,2013-01-03 18:53:00,
2013-01-03 14:03:00,41.0,36.0,-100.00,North,11,6.0,12.0,83,0.00,,,0.05,122.000000,,2013-01-03 19:03:00,
2013-01-03 14:57:00,42.0,36.0,-100.00,NNE,17,6.0,11.0,80,0.00,,,0.05,119.000000,,2013-01-03 19:57:00,
2013-01-03 15:03:00,42.0,36.0,-100.00,NNE,17,6.0,11.0,80,0.00,,,0.05,119.000000,,2013-01-03 20:03:00,
2013-01-03 15:33:00,42.0,36.0,-100.00,North,4,4.0,11.0,78,0.00,,,0.05,53.000000,,2013-01-03 20:33:00,
2013-01-03 15:43:00,42.0,36.0,-100.00,North,4,4.0,11.0,78,0.00,,,0.05,53.000000,,2013-01-03 20:43:00,
2013-01-03 15:53:00,42.0,36.0,-100.00,North,4,4.0,11.0,78,0.00,,,0.05,53.000000,,2013-01-03 20:53:00,
2013-01-03 16:03:00,42.0,36.0,-100.00,North,4,4.0,11.0,78,0.00,,,0.05,53.000000,,2013-01-03 21:03:00,